Home   Weather   Gjøvik   Past weeks

Flag for Norway Past Weather in Gjøvik, Norway — Yesterday and Last 2 Weeks

Now
55 °F

Cool.


Feels Like: 55 °F
Forecast: 51 / 61 °F
Wind: 1 mph from Northwest

Location: Lillehammer-Saetherengen

Current Time: Aug 18, 2017 at 12:49:40 pm

Latest Report: Aug 18, 2017 at 12:00 pm


Visibility: N/A

Pressure: 29.70 "Hg

Humidity: 96%

Dew Point: 54 °F

Location of GjøvikLocation

Past Weather in Gjøvik — Graph

°F

Gjøvik Temperature Yesterday

Maximum temperature yesterday: 64 °F (at 2:00 pm)
Minimum temperature yesterday: 44 °F (at 6:00 am)
Average temperature yesterday: 55 °F

High & Low Weather Summary for the Past Weeks

 TemperatureHumidityPressure
High72 °F (Aug 11, 6:00 pm)96% (Aug 8, 2:00 am)30.13 "Hg (Aug 8, 2:00 am)
Low41 °F (Aug 14, 6:00 am)30% (Aug 13, 5:00 pm)29.32 "Hg (Aug 4, 3:00 pm)
Average57 °F77%29.80 "Hg
* Reported Aug 3 11:00 am — Aug 18 11:00 am, Gjøvik. Weather by CustomWeather, © 2017

Note: Actual official high and low records may vary slightly from our data, if they occured in-between our weather recording intervals... More about our weather records

Advertising

Gjøvik Weather History for the Previous 24 Hours

Scroll right to see more
 ConditionsComfort  
Time TempWeatherWind HumidityBarometerVisibility
11:00 am
Fri, Aug 18
54 °FCool.2 mph96%29.72 "HgN/A
10:00 am54 °FCool.1 mph96%29.72 "HgN/A
9:00 am53 °FCool.1 mph96%29.72 "HgN/A
8:00 am53 °FCool.1 mph96%29.73 "HgN/A
7:00 am52 °FCool.1 mph96%29.74 "HgN/A
6:00 am52 °FCool.1 mph95%29.76 "HgN/A
5:00 am52 °FCool.2 mph95%29.78 "HgN/A
4:00 am52 °FCool.2 mph95%29.79 "HgN/A
3:00 am52 °FCool.1 mph94%29.81 "HgN/A
2:00 am53 °FCool.1 mph93%29.83 "HgN/A
1:00 am53 °FCool.No wind91%29.85 "HgN/A
12:00 am54 °FCool.No wind85%29.86 "HgN/A
11:00 pm
Thu, Aug 17
56 °FCool.2 mph78%29.87 "HgN/A
10:00 pm58 °FCool.3 mph65%29.88 "HgN/A
9:00 pm59 °FCool.3 mph62%29.88 "HgN/A
8:00 pm60 °FCool.2 mph61%29.88 "HgN/A
7:00 pm62 °FRefreshingly cool.3 mph58%29.88 "HgN/A
6:00 pm63 °FMild.3 mph60%29.89 "HgN/A
5:00 pm63 °FMild.5 mph55%29.90 "HgN/A
4:00 pm64 °FMild.3 mph57%29.91 "HgN/A
3:00 pm64 °FMild.5 mph57%29.92 "HgN/A
2:00 pm64 °FMild.5 mph58%29.93 "HgN/A
1:00 pm62 °FCool.3 mph61%29.96 "HgN/A
12:00 pm61 °FCool.3 mph69%29.98 "HgN/A
Weather by CustomWeather, © 2017

See weather overviewHow to use our weather pages